THOR ABLESTAR DEB, 420

Orbit data source: Space-Track

THOR ABLESTAR DEB, 420 is space debris in LEO originally from a launch on Thu, 29 Jun 1961 UTC launched from the Air Force Eastern Test Range (AFETR). Debris objects in space refer to the collection of defunct objects orbiting the Earth. Examples of debris include non-operational satellites, rocket bodies, and fragments generated from explosions, collisions, or faulty payload assembly.

Loading next visibility...
Identifier
420, 1961-015EV
Orbit
LEO
Country
Flag of USUS
Related business
Manufacturer
Unknown
Mission
Spacecraft
Bus & Motor
Unknown
Mass
Unknown
Launch date (UTC)
1961-06-29 (64 years ago)
Launch vehicle
Unknown
Launch site
Air Force Eastern Test Range (AFETR)
Object type
Payload
Rocket body
Debris
Shape & HBR
Unknown
Radar Cross Section
Small (<0.1 m²)

Expand to show TLE details & history
Last TLE update: 19 hours ago

TLE from 19 hours ago
0 THOR ABLESTAR DEB
1 00420U 61015EV  25260.03552686  .00000752  00000-0  29338-3 0  9991
2 00420  66.8117 272.5931 0077041  50.9206 309.8715 14.33332740314424
Epoch: 2025-09-17T00:51Z
TLE epoch observation values (Epoch: 2025-09-17T00:51:09.52Z)
Latitude
0.00004°
Longitude
-96.4138°
Altitude
747.623 km
Speed
7.5 km/s
True Right ascension
18h 10m 22s
True Declination
0° 00' 00"
Sunlit
Object was in daylight at epoch
Visualization orbit readout
Latitude
Unknown
Longitude
Unknown
Altitude
Unknown
Speed
Unknown
Apparent Right ascension
Unknown
Apparent Declination
Unknown
Sunlit
N/A
Visualization observer readout
Local Sidereal Time
12:17:43
Azimuth
Unknown
Elevation
Unknown
Doppler factor
Unknown
Orbital elements
Apogee altitude
834.111 km
Perigee altitude
723.833 km
Semi-major axis
7,157.109 km
Eccentricity
0.0077
Inclination
66.8117°
RAAN
272.5931°
Arg. of periapsis
50.9206°
True anomaly
309.18975°
Mean anomaly
309.8715°
Eccentric anomaly
309.53105°
Mean motion
3.58457 °/min
Orbital period
100.43 mins
BSTAR
0.00029338
Loading maneuver chart data...
Computing Atmospheric mass density...

Documentation

Showing up to 5 results
|